#timestamp,LO_Frequency,Hit 
1503698415.6,286046997.1,N
1503698435.4,286046998.3,N
1503698455.3,286046997.1,N
1503698475.1,286046996.6,N
1503698495.8,286046997.7,N
1503698515.7,286046999.2,N
1503698535.5,286046999.3,N
1503698555.3,286046998.9,N
1503698575.2,286046997.9,N
1503698595.9,286046997.2,N
1503698615.7,286046999.2,N
1503698635.6,286046998.4,N
1503698655.4,286047001.0,N
1503698675.2,286047001.7,N
1503698695.1,286047003.5,N
1503698696.0,286047003.5,N
1503698715.8,286047003.0,N
1503698735.6,286047000.2,N
1503698755.5,286046998.5,N
1503698775.3,286047000.5,N
1503698795.1,286047002.7,N
1503698815.9,286046999.8,N
1503698835.7,286047001.3,N
1503698855.5,286047001.7,N
1503698875.3,286047002.6,N
1503698895.2,286047000.1,N
1503698915.0,286047005.9,N
1503698915.9,286047005.9,N
1503698935.7,286047004.8,N
1503698955.6,286047004.5,N
1503698975.4,286047008.8,P
1503698995.5,286047009.2,N
1503699015.4,286047008.3,N
1503699035.2,286047006.2,N
1503699055.0,286047008.4,N
1503699055.9,286047008.4,N
1503699075.8,286047008.3,N
1503699095.6,286047007.7,N
1503699115.4,286047008.2,P
1503699135.3,286047001.3,N
1503699155.2,286047000.5,N
1503699175.0,286047000.7,N
1503699175.9,286047000.7,N
1503699195.8,286047000.4,N
1503699215.6,286046998.3,N
1503699235.4,286046996.8,N
1503699255.2,286046997.0,N
1503699275.1,286046998.7,N
1503699276.0,286046998.7,N
1503699295.8,286046999.5,N
1503699315.6,286046997.5,N
1503699335.5,286046997.0,N
1503699355.3,286046998.6,N
1503699375.1,286046999.0,N
1503699395.9,286046998.2,N
1503699415.7,286047001.0,N
1503699435.5,286046998.3,N
1503699455.4,286046999.0,N
1503699475.2,286046996.8,N
1503699495.0,286046997.5,N
1503699495.9,286046997.5,N
1503699515.8,286046993.6,N
1503699535.6,286046994.2,N
1503699555.4,286046993.6,N
1503699575.2,286046994.8,N
1503699595.1,286046990.7,N
1503699596.0,286046990.7,N
1503699615.8,286046989.6,N
1503699635.7,286046988.5,P
1503699655.5,286046992.2,N
1503699675.3,286046991.2,N
1503699695.1,286046992.7,N
1503699715.9,286046993.9,N
1503699735.7,286046992.2,N
1503699755.5,286046994.8,N
1503699775.4,286046998.0,N
1503699795.2,286046997.1,N
1503699815.0,286046998.9,N
1503699815.9,286046998.9,N
1503699835.8,286046996.5,N
1503699855.6,286046999.6,N
1503699875.4,286047002.2,N
1503699895.3,286047000.0,N
1503699915.1,286047001.2,N
1503699916.0,286047001.2,N
1503699935.8,286046999.6,N
1503699955.7,286046997.4,N
1503699975.5,286046996.5,N
1503699995.3,286047000.9,N
1503700015.1,286047000.3,N
1503700035.9,286047000.9,N
1503700055.7,286046998.8,N
1503700075.5,286046997.6,N
1503700095.4,286047000.8,N
1503700115.2,286046999.7,N
1503700135.0,286046998.5,N
1503700135.9,286046998.5,N
1503700155.8,286047002.5,N
1503700175.6,286047002.2,N
1503700195.4,286047001.5,N
1503700215.3,286047002.7,N
1503700235.1,286046998.4,N
1503700236.0,286046998.4,N
1503700255.8,286047000.5,N
1503700275.7,286047000.5,N
1503700295.5,286047001.1,N
1503700315.3,286047000.7,N
1503700335.2,286047002.3,N
1503700355.9,286047002.3,N
1503700375.7,286047002.2,N
1503700395.5,286047003.6,N
1503700415.4,286047001.7,N
1503700435.2,286047003.1,N
1503700455.0,286047004.0,N
1503700455.9,286047004.0,N
1503700475.8,286047004.3,N
1503700495.6,286047002.7,N
1503700515.4,286047000.5,N
1503700535.3,286047000.9,N
1503700555.1,286047002.5,N
1503700575.8,286047001.0,N
1503700595.7,286047000.0,N
1503700615.5,286047004.0,N
1503700635.3,286047003.7,N
1503700655.2,286047003.1,N
1503700675.9,286047002.5,N
1503700695.7,286047002.8,N
1503700715.5,286047002.5,N
1503700735.4,286047003.5,N
1503700755.2,286047005.6,P
1503700775.1,286047002.2,N
1503700776.0,286047002.2,N
1503700795.8,286046999.8,N
1503700815.4,286047000.3,N
1503700835.2,286047001.7,N
1503700855.6,286047002.7,N
1503700875.4,286047002.0,N
1503700895.3,286047002.7,N
1503700915.1,286046998.1,N
1503700935.8,286047002.4,N
1503700955.7,286047001.5,N
1503700975.8,286047002.1,N
1503700995.6,286046998.1,N
1503701015.4,286047002.6,N
1503701035.3,286046999.7,N
1503701055.1,286047000.1,N
1503701056.0,286047000.1,N
1503701075.8,286047001.8,N
1503701095.7,286047002.9,N
1503701115.5,286047003.7,N
1503701135.3,286047002.6,N
1503701155.2,286047000.1,N
1503701175.9,286047000.0,N
1503701195.7,286046999.4,N
1503701215.5,286047000.6,N
1503701235.4,286047001.5,N
1503701255.2,286047002.7,N
1503701275.0,286046999.9,N
1503701275.9,286046999.9,N
1503701295.8,286047001.7,N
1503701315.6,286047003.1,N
1503701335.4,286047003.4,N
1503701355.3,286047002.5,N
1503701375.1,286047001.7,N
1503701395.8,286047001.3,N
1503701415.7,286047001.7,N
1503701435.5,286047001.9,N
1503701455.3,286047001.5,N
1503701475.2,286047006.0,P
1503701495.9,286047003.9,N
1503701515.7,286047002.8,N
1503701535.6,286046998.2,N
1503701555.4,286046998.7,N
1503701575.2,286046998.9,N
1503701595.1,286046998.2,N
1503701596.0,286046998.2,N
1503701615.8,286047000.2,N
1503701635.6,286047002.3,N
1503701655.5,286047005.2,N
1503701675.3,286047004.7,N
1503701695.1,286047003.1,N
1503701715.8,286047004.8,N
1503701735.7,286047005.2,N
1503701755.5,286047007.2,N
1503701775.3,286047005.4,N
1503701795.2,286047003.5,N
1503701815.9,286047002.7,N
1503701835.7,286047002.2,N
1503701855.6,286047003.9,N
1503701875.4,286047003.9,N
1503701895.2,286047002.3,N
1503701915.1,286047000.7,N
1503701916.0,286047000.7,N
1503701935.8,286047002.6,N
1503701955.6,286047002.0,N
1503701975.5,286047000.4,N
1503701995.3,286046997.7,N
